Погода в Обидимо

Россия / Тульская область     54°18′12″N   37°24′13″E
темп.,
°C
ветер,
м/с
пор.,
м/с
влажн.,
%
обл.,
%
осадки,
мм/ч
давл.,
гПа
погр.,
м
17 мая, вт
вт1700:00+4з5129085 0.0 1008349
03:00+3з5119531 0.0 1008371
06:00+5з61292100 0.1 1006726
09:00+7зсз71385100 0.4 10051224
12:00+6сз71293100 1.6 10061074
15:00+5сз71194100 2.9 1006811
18:00+6зсз71295100 3.8 1006806
21:00+6сз61197100 3.9 1006587
18 мая, ср
ср1800:00+7сз61196100 2.1 1005526
03:00+7с51197100 3.4 1006554
06:00+6с61197100 1.2 1008585
09:00+7с6109380 1.3 1011618
12:00+12с785520 0.1 10121574
15:00+14с694859 0.1 10132118
18:00+12ссз5961100 0.1 1013921
21:00+9ссз5107488 0.1 1016610
19 мая, чт
чт1900:00+5сз39895 0.0 1018240
03:00+3зсз36905 0.0 1018117
06:00+5з411825 0.0 1017268
09:00+11зсз711655 0.0 1016941
12:00+12сз71060100 0.0 10161802
15:00+12ссз586365 0.3 10161193
18:00+11ссз597218 0.3 10171148
21:00+7ссз22845 0.3 101816
20 мая, пт
пт2000:00+5зсз23885 0.0 101940
03:00+4зсз2492100 0.0 102062
06:00+5зсз258499 0.0 1020147
09:00+11сз465789 0.0 1020640
12:00+13зсз3549100 0.0 10191528
15:00+14зсз3449100 0.0 10171635
18:00+11зюз4471100 0.0 1016495
21:00+8ююз3595100 0.8 1015197
21 мая, сб
сб2100:00+8юв4797100 1.2 1012358
03:00+8юв4799100 3.8 1009331
06:00+8всв4898100 5.8 1006428
09:00+8в61096100 11.7 1006393
12:00+8всв4894100 0.0 1008544
15:00+8в4888100 0.1 1008619
18:00+10юв3683100 0.0 1007622
21:00+7вюв3793100 0.0 1007234